Location: Cucq
(50.4773°N, 1.6202°E)
Time: 05:34:46
(UTC+00:00)

Cosmos 1908 Rocket - Pass Details

Date: 07 August 2020
Orbit: 606 x 632 km, 82.5° (Epoch: 19 September)

Event Time Altitude Azimuth Distance (km) Brightness Sun altitude
Exits shadow 00:21:11 63° 252° (WSW) 695 3.6 -23.0°
Maximum altitude 00:21:32 66° 282° (WNW) 679 3.7 -23.0°
Drops below altitude 10° 00:25:55 10° 5° (N) 1,988 7.3 -22.9°
Sets 00:28:09 0° 9° (N) 2,894 8.5 -22.9°
